STARLINK-3318 (50837 NORAD) Tracking and Keplerian Element Data

This shows tracking and keplerian element data for the satellite.

Feedback or suggestion? Click here.




ElementValue
Catalog50837
NameSTARLINK-3318
Epoch Orbit130
Epoch Day140.58334491
Epoch Year2022
RAAN285.0554
Inclination53.2182
Eccentricity0.0001852
Argument of Perigee38.0132
Mean Anonmoly168.4796
Mean Motion15.08868025
Decay Rate-0.00065978
L11 50837U 22001AL 22140.58334491 -.00065978 00000+0 -41624-2 0 9999
L22 50837 53.2182 285.0554 0001852 38.0132 168.4796 15.08868025 1306

Live tracking and technical data element details for STARLINK-3318 (NORAD 50837). STARLINK-3318 can be tracked NOW for your location showing map with azimuth and elevation plus other details from your city location.

Track the satellite on the map from your city or location and see movement details for azimuth, elevation, latitude, longitude, range, height, and movement on the map or in text.







IsCatalogInMostPopularTable: catalog: 50837, numindb: 23
Update: records affected: 1



GetName: 50837 STARLINK-3318

Hit Count: updated at: Mon, 23 May 2022 21:12:56 GMT